Simultaneous Nadir Overpasses (SNOs) Predictions

Prediction of SNOs between FY3D and LANDSAT-8 Satellite Orbit:

Table of predicted SNOs for the next 14.0 days since TLE Epoch: 8/12/2023
Index Date (FY3D) Time (FY3D) Lat,Lon (FY3D) SZA (FY3D ) Date (LANDSAT-8) Time (LANDSAT-8) Lat,Lon (LANDSAT-8) SZA (LANDSAT-8 ) Distance(km) Time Diff (sec)
1 08/14/2023 04:09:24 73.30, 119.01 58.76 08/14/2023 04:10:26 73.29, 119.05 58.75 1.47 62
2 08/14/2023 05:00:07 -73.24, -73.54 121.30 08/14/2023 04:59:55 -73.23, -73.45 121.31 3.19 12
3 08/14/2023 05:50:40 72.52, 95.31 58.01 08/14/2023 05:49:33 72.56, 92.89 58.04 80.84 67
4 08/16/2023 19:36:30 -73.31, 67.24 120.41 08/16/2023 19:37:32 -73.30, 67.31 120.42 2.43 62
5 08/16/2023 20:27:15 73.21,-125.22 59.50 08/16/2023 20:26:59 73.21,-125.23 59.51 0.99 16
6 08/16/2023 21:17:46 -72.54, 43.53 121.15 08/16/2023 21:16:39 -72.57, 41.15 121.13 79.51 67
7 08/19/2023 11:03:38 73.29, 15.53 60.43 08/19/2023 11:04:36 73.28, 15.50 60.42 1.76 58
8 08/19/2023 11:54:21 -73.22,-176.99 119.63 08/19/2023 11:54:05 -73.22,-176.98 119.64 0.39 16
9 08/22/2023 02:30:44 -73.31, -36.25 118.68 08/22/2023 02:31:42 -73.28, -36.26 118.71 3.41 58
10 08/22/2023 03:21:29 73.22, 131.27 61.24 08/22/2023 03:21:08 73.24, 131.29 61.26 2.53 21
11 08/24/2023 17:57:51 73.32, -88.01 62.23 08/24/2023 17:58:44 73.29, -88.01 62.20 3.34 53
12 08/24/2023 18:48:34 -73.24, 79.49 117.84 08/24/2023 18:48:13 -73.24, 79.52 117.85 0.79 21



Historial Predications of SNOs between FY3D and LANDSAT-8
